CZ-3C DEB, 40861

Orbit data source: Space-Track

CZ-3C DEB, 40861 is space debris in HEO originally from a launch on Fri, 24 Feb 2012 UTC launched from the Xichang Space Center, China (XSC). Debris objects in space refer to the collection of defunct objects orbiting the Earth. Examples of debris include non-operational satellites, rocket bodies, and fragments generated from explosions, collisions, or faulty payload assembly.

Loading next visibility...
Identifier
40861, 2012-008AB
Orbit
HEO
Country
Flag of CNCN / PRC
Related business
Manufacturer
CALT
Mission
Spacecraft
Bus & Motor
Unknown
Mass
Unknown
Launch date (UTC)
2012-02-24 (14 years ago)
Launch vehicle
Unknown
Launch site
Xichang Space Center, China (XSC)
Object type
Payload
Rocket body
Debris
Shape & HBR
Unknown shape, 0.1 m
Radar Cross Section
Medium (>0.1 m² and <1 m²)

Expand to show TLE details & history
Last TLE update: 1 day ago

TLE from 1 day ago
0 CZ-3C DEB
1 40861U 12008AB  25293.57518823 -.00000087  00000-0  87491-3 0  9998
2 40861  20.8861  59.3328 7101421 125.7570 322.3722  2.28996412 90978
Epoch: 2025-10-20T13:48Z
TLE epoch observation values (Epoch: 2025-10-20T13:48:16.263Z)
Latitude
0.00003°
Longitude
-177.04799°
Altitude
14,216.912 km
Speed
4.724 km/s
True Right ascension
03h 57m 10s
True Declination
0° 00' 00"
Sunlit
Object was in daylight at epoch
Visualization orbit readout
Latitude
Unknown
Longitude
Unknown
Altitude
Unknown
Speed
Unknown
Apparent Right ascension
Unknown
Apparent Declination
Unknown
Sunlit
N/A
Visualization observer readout
Local Sidereal Time
15:34:16
Azimuth
Unknown
Elevation
Unknown
Doppler factor
Unknown
Orbital elements
Apogee altitude
35,208.796 km
Perigee altitude
670.576 km
Semi-major axis
24,317.823 km
Eccentricity
0.71014
Inclination
20.8861°
RAAN
59.3328°
Arg. of periapsis
125.757°
True anomaly
234.45861°
Mean anomaly
322.3722°
Eccentric anomaly
282.67572°
Mean motion
0.57234 °/min
Orbital period
628.99 mins
BSTAR
0.00087491
Loading maneuver chart data...
Computing Atmospheric mass density...
Loading historical data...
Loading historical data...
Loading historical data...
Loading historical data...
Loading historical data...
Loading historical data...
Loading historical data...

Documentation

Showing up to 5 results
|